Location: Carson
(33.8314°N, 118.2820°W)
Time: 13:28:58
(UTC+00:00)

ASTRO F (AKARI) - Pass Details

Date: 23 November 2020
Orbit: 398 x 519 km, 98.2° (Epoch: 21 January)

Event Time Altitude Azimuth Distance (km) Brightness Sun altitude
Rises 13:35:54 0° 7° (N) 2,312 7.9 -12.0°
Reaches altitude 10° 13:37:54 10° 2° (N) 1,450 6.8 -11.6°
Maximum altitude 13:40:54 52° 285° (WNW) 505 4.2 -11.0°
Drops below altitude 10° 13:43:56 10° 207° (SSW) 1,459 6.9 -10.4°
Sets 13:45:56 0° 203° (SSW) 2,328 8.0 -10.0°
